Location: Godiavel Galaoual
(15.2485°N, 12.6604°W)
Time: 00:20:42
(UTC+00:00)

Transit 4A - Pass Details

Date: 21 June 2021
Orbit: 872 x 972 km, 66.8° (Epoch: 29 July)

Event Time Altitude Azimuth Distance (km) Brightness Sun altitude
Rises 07:55:00 0° 171° (S) 3,610 10.9 20.1°
Reaches altitude 10° 07:58:07 10° 157° (SSE) 2,650 10.4 20.8°
Maximum altitude 08:02:47 23° 107° (ESE) 1,872 10.6 21.8°
Drops below altitude 10° 08:07:22 10° 58° (ENE) 2,599 12.0 22.9°
Sets 08:10:22 0° 44° (NE) 3,523 11.9 23.6°
